Home > Weather > Brno > Past weeks

Flag for Czech Republic Weather for the Past 2 Weeks in Brno, Czech Republic

Now
36 °F

Overcast.


Feels Like: 33 °F
Forecast: 35 / 51 °F
Wind: 3 mph from Northeast

Location: Brno / Turany

Current Time: Feb 6, 2016 at 4:21:23 AM

Latest Report: Feb 6, 2016 at 3:30 AM


Visibility: N/A

Pressure: 30.27 "Hg

Humidity: 81%

Dew point: 30 °F

Location of BrnoLocation

Historic Weather in Brno — Graph

°F

Brno Temperature Yesterday

Maximum temperature yesterday: 41 °F (at 12:00 PM)
Minimum temperature yesterday: 34 °F (at 12:00 AM)
Average temperature yesterday: 36 °F

High & Low Weather Summary for the Past Weeks

 TemperatureHumidityPressure
High50 °F (Jan 28, 3:00 PM)100% (Jan 24, 6:00 PM)30.57 "Hg (Jan 24, 6:00 PM)
Low12 °F (Jan 22, 6:00 AM)45% (Feb 5, 2:00 PM)29.77 "Hg (Jan 31, 1:30 AM)
Average36 °F84%30.21 "Hg
* Reported Jan 22 3:00 AM — Feb 6 3:00 AM, Brno, Weather by CustomWeather, © 2016

Note: Actual official high and low records may vary slightly from our data, if they occured in-between our weather recording intervals... More about our weather records

Advertising

Brno Weather History for the Previous 24 Hours

 ConditionsComfort  
Time TempWeatherWind HumidityBarometerVisibility
3:00 AM
Sat, Feb 6
36 °FOvercast.5 mph81%30.27 "HgN/A
2:30 AM34 °FOvercast.5 mph87%30.27 "HgN/A
1:30 AM34 °FOvercast.2 mph81%30.27 "HgN/A
1:00 AM34 °FOvercast.2 mph81%30.27 "HgN/A
12:30 AM36 °FLight snow. Overcast.No wind75%30.27 "HgN/A
12:00 AM36 °FLight snow. Overcast.2 mph70%30.30 "HgN/A
11:30 PM
Fri, Feb 5
34 °FLight snow. Overcast.2 mph81%30.30 "HgN/A
11:00 PM34 °FLight snow. Overcast.3 mph81%30.30 "HgN/A
10:30 PM34 °FOvercast.2 mph81%30.30 "HgN/A
10:00 PM34 °FOvercast.2 mph75%30.30 "HgN/A
9:30 PM36 °FOvercast.2 mph70%30.30 "HgN/A
9:00 PM34 °FPassing clouds.1 mph75%30.30 "HgN/A
8:30 PM34 °FPassing clouds.2 mph75%30.30 "HgN/A
8:00 PM34 °FPassing clouds.3 mph70%30.30 "HgN/A
7:30 PM36 °FPassing clouds.1 mph65%30.30 "HgN/A
7:00 PM36 °FPassing clouds.1 mph60%30.30 "HgN/A
6:30 PM36 °FPassing clouds.3 mph60%30.30 "HgN/A
6:00 PM37 °FPassing clouds.2 mph56%30.30 "HgN/A
5:30 PM37 °FPassing clouds.2 mph56%30.30 "HgN/A
5:00 PM39 °FPassing clouds.5 mph52%30.30 "HgN/A
4:30 PM39 °FPassing clouds.5 mph52%30.30 "HgN/A
4:00 PM41 °FPassing clouds.8 mph49%30.30 "HgN/A
3:30 PM41 °FPassing clouds.12 mph49%30.30 "HgN/A
3:00 PM41 °FPassing clouds.12 mph45%30.30 "HgN/A
2:30 PM41 °FPassing clouds.14 mph45%30.30 "HgN/A
2:00 PM41 °FPassing clouds.15 mph45%30.30 "HgN/A
1:30 PM41 °FPartly sunny.13 mph49%30.30 "HgN/A
1:00 PM41 °FPartly sunny.15 mph49%30.30 "HgN/A
12:30 PM41 °FScattered clouds.18 mph49%30.33 "HgN/A
12:00 PM41 °FPassing clouds.14 mph53%30.33 "HgN/A
11:30 AM39 °FPartly sunny.9 mph61%30.33 "HgN/A
11:00 AM37 °FLight snow. Partly sunny.14 mph70%30.33 "HgN/A
10:30 AM39 °FScattered clouds.15 mph65%30.33 "HgN/A
10:00 AM37 °FPassing clouds.6 mph75%30.30 "HgN/A
9:30 AM36 °FPassing clouds.5 mph81%30.30 "HgN/A
9:00 AM36 °FPassing clouds.1 mph81%30.30 "HgN/A
8:30 AM34 °FScattered clouds.2 mph87%30.27 "HgN/A
8:00 AM34 °FPartly sunny.3 mph87%30.27 "HgN/A
7:30 AM34 °FScattered clouds.No wind87%30.24 "HgN/A
7:00 AM34 °FPassing clouds.2 mph87%30.24 "HgN/A
6:30 AM34 °FPassing clouds.5 mph87%30.21 "HgN/A
6:00 AM36 °FPassing clouds.5 mph87%30.21 "HgN/A
5:30 AM36 °FOvercast.9 mph87%30.18 "HgN/A
5:00 AM36 °FPassing clouds.6 mph87%30.18 "HgN/A
4:30 AM36 °FPassing clouds.6 mph87%30.15 "HgN/A
4:00 AM34 °FPassing clouds.9 mph93%30.12 "HgN/A
Weather by CustomWeather, © 2016

See weather overviewHow to use our weather pages